Location: Sobotiste
(48.7170°N, 17.4000°E)
Time: 08:31:29
(UTC+02:00)

YUBILEINY - Pass Details

Date: 18 March 2026
Orbit: 1477 x 1509 km, 82.5° (Epoch: 17 April)

Event Time Altitude Azimuth Distance (km) Brightness Sun altitude
Rises 18:28:25 0° 252° (WSW) 4,633 ? -5.5°
Reaches altitude 10° 18:32:47 10° 272° (W) 3,651 ? -6.2°
Maximum altitude 18:38:06 17° 310° (NW) 3,119 ? -7.1°
Drops below altitude 10° 18:43:27 10° 348° (NNW) 3,645 ? -8.0°
Sets 18:47:51 0° 8° (N) 4,623 ? -8.7°
